Location: Banksville Park
(38.5557°N, 75.1182°W)
Time: 06:48:06
(UTC+00:00)

X-37B - Visible Passes

Search period start: 26 November 2020 00:00
Search period end: 06 December 2020 00:00
Orbit: 384 x 389 km, 45.0° (Epoch: 12 November)

Date Brightness Start Highest point End Pass type
(mag) Time Alt. Az. Time Alt. Az. Time Alt. Az.
26 Nov 1.9 23:38:54 10° WSW 23:41:02 39° WSW 23:41:02 39° WSW visible
27 Nov 1.0 22:40:27 10° SW 22:43:32 49° SSE 22:45:14 23° E visible
28 Nov 4.1 00:17:18 10° W 00:17:30 11° W 00:17:30 11° W visible
28 Nov 1.0 23:18:27 10° W 23:21:33 50° NNW 23:21:38 50° NNW visible
29 Nov 0.6 22:19:46 10° WSW 22:22:56 86° NNW 22:25:44 13° ENE visible
29 Nov 3.4 23:57:04 10° WNW 23:58:00 16° WNW 23:58:00 16° WNW visible
30 Nov 1.7 22:58:10 10° W 23:01:06 34° NNW 23:02:04 27° NNE visible
01 Dec 2.8 23:36:49 10° WNW 23:38:22 20° NW 23:38:22 20° NW visible
02 Dec 2.0 22:37:56 10° WNW 22:40:43 27° N 22:42:25 17° NE visible
03 Dec 2.2 23:16:27 10° NW 23:18:44 24° N 23:18:44 24° N visible
04 Dec 2.1 22:17:40 10° WNW 22:20:21 24° N 22:22:48 11° NE visible
04 Dec 3.5 23:54:33 10° NW 23:55:05 14° NW 23:55:05 14° NW visible
05 Dec 1.8 22:55:58 10° NW 22:58:45 27° N 22:59:13 26° NNE visible
